Estherville, IA

10:37 PM CDT on August 30, 2016 (GMT -0500)
Estherville Municipal

Weather History for KEST - February, 2014

Change the Weather History Date:

Thursday, February 20, 2014

  Actual Average Record
Temperature  
Mean Temperature 25 °F 22 °F  
Max Temperature 33 °F 31 °F 57 °F (1981)
Min Temperature 17 °F 13 °F -18 °F (2008)
Degree Days  
Heating Degree Days 40 43  
Month to date heating degree days 1113 917  
Since 1 July heating degree days 6016 5588  
Cooling Degree Days 0 0  
Month to date cooling degree days 0 0  
Year to date cooling degree days 0 0  
Moisture  
Dew Point 29 °F    
Average Humidity 95    
Maximum Humidity 100    
Minimum Humidity 89    
Precipitation  
Precipitation 0.21 in 0.01 in 1.25 in (1954)
Month to date precipitation 0.28 0.25  
Sea Level Pressure  
Sea Level Pressure 29.49 in    
Wind  
Wind Speed 18 mph (NW)    
Max Wind Speed 44 mph    
Max Gust Speed 51 mph    
Visibility 3 miles    
Events Fog , Snow    
T = Trace of Precipitation, MM = Missing Value Source: NWS Daily Summary

Daily Weather History Graph

Daily Weather History Graph

Search for Another Location

Airport or City:

Trip Planner

Search our weather history database for the weather conditions in past years. The results will help you decide how hot, cold, wet, or windy it might be!

Date:

Astronomy

Feb. 20, 2014 Rise Set
Actual Time 7:09 AM CST 5:56 PM CST
Civil Twilight 6:40 AM CST 6:25 PM CST
Nautical Twilight 6:07 AM CST 6:58 PM CST
Astronomical Twilight 5:34 AM CST 7:31 PM CST
Moon No Moon Rise 9:42 AM CST (2/20)
Length of Visible Light 11h 44m
Length of Day
10h 46m
Waning Gibbous, 70% of the Moon is Illuminated
Feb 20
Waning Gibbous
Feb 22
Last Quarter
Mar 1
New
Mar 8
First Quarter
Mar 16
Full

Hourly Weather History & Observations

Time (CST) Temp. Windchill Dew Point Humidity Pressure Visibility Wind Dir Wind Speed Gust Speed Precip Events Conditions
12:52 AM 32.0 °F 25.6 °F 30.9 °F 96% 29.67 in 10.0 mi SE 6.9 mph - N/A   Clear
1:44 AM 32.0 °F 24.2 °F 30.9 °F 96% 29.61 in 10.0 mi SE 9.2 mph - N/A   Mostly Cloudy
1:52 AM 33.1 °F 26.1 °F 30.9 °F 92% 29.64 in 10.0 mi SE 8.1 mph - N/A   Mostly Cloudy
2:52 AM 32.0 °F 24.8 °F 30.9 °F 96% 29.63 in 10.0 mi SSE 8.1 mph - N/A   Overcast
3:52 AM 33.1 °F 26.9 °F 32.0 °F 96% 29.61 in 10.0 mi SSE 6.9 mph - N/A   Overcast
4:22 AM 33.1 °F 26.9 °F 32.0 °F 96% 29.57 in 10.0 mi SSE 6.9 mph - N/A   Overcast
4:45 AM 33.1 °F 26.9 °F 32.0 °F 96% 29.57 in 10.0 mi SSE 6.9 mph - N/A   Overcast
4:52 AM 33.1 °F 28.7 °F 32.0 °F 96% 29.60 in 10.0 mi South 4.6 mph - N/A   Overcast
5:45 AM 33.1 °F 26.1 °F 32.0 °F 96% 29.56 in 10.0 mi South 8.1 mph - N/A   Overcast
5:52 AM 33.1 °F 26.1 °F 32.0 °F 96% 29.59 in 10.0 mi SSE 8.1 mph - N/A   Overcast
6:52 AM 33.1 °F - 33.1 °F 100% 29.55 in 10.0 mi Calm Calm - N/A   Overcast
7:52 AM 32.0 °F 28.7 °F 32.0 °F 100% 29.58 in 7.0 mi SW 3.5 mph - N/A   Overcast
8:52 AM 33.1 °F 30.0 °F 33.1 °F 100% 29.58 in 7.0 mi WNW 3.5 mph - N/A   Overcast
9:52 AM 33.1 °F 24.4 °F 32.0 °F 96% 29.54 in 2.5 mi NNW 11.5 mph - 0.00 in Snow Light Snow
9:59 AM 32.0 °F 22.5 °F 32.0 °F 100% 29.50 in 1.5 mi NNW 12.7 mph - 0.00 in Snow Light Snow
10:13 AM 32.0 °F 21.6 °F 32.0 °F 100% 29.48 in 1.0 mi NNW 15.0 mph - 0.01 in Snow Light Snow
10:19 AM 32.0 °F 22.1 °F 32.0 °F 100% 29.48 in 1.5 mi NNW 13.8 mph - 0.01 in Snow Light Snow
10:29 AM 33.1 °F 22.2 °F 32.0 °F 96% 29.48 in 2.0 mi North 17.3 mph - 0.01 in Snow Light Snow
10:42 AM 33.1 °F 21.5 °F 33.1 °F 100% 29.46 in 3.0 mi North 19.6 mph - 0.01 in Snow Light Snow
10:52 AM 33.1 °F 22.2 °F 33.1 °F 100% 29.49 in 1.8 mi North 17.3 mph - 0.01 in Snow Light Snow
11:05 AM 32.0 °F 20.8 °F 32.0 °F 100% 29.44 in 1.0 mi NNW 17.3 mph - 0.00 in Snow Light Snow
11:23 AM 33.1 °F 21.5 °F 33.1 °F 100% 29.46 in 1.2 mi NNW 19.6 mph - 0.00 in Snow Light Snow
11:33 AM 33.1 °F 21.9 °F 33.1 °F 100% 29.48 in 2.5 mi NW 18.4 mph - 0.00 in Snow Light Snow
11:42 AM 33.1 °F 21.9 °F 33.1 °F 100% 29.48 in 3.0 mi NW 18.4 mph - 0.00 in Snow Light Snow
11:49 AM 33.8 °F 22.8 °F 33.8 °F 100% 29.50 in 1.8 mi NW 18.4 mph 25.3 mph 0.00 in Snow Light Snow
11:52 AM 33.1 °F 21.9 °F 33.1 °F 100% 29.54 in 1.2 mi NW 18.4 mph 25.3 mph 0.01 in Snow Light Snow
11:55 AM 33.1 °F 21.5 °F 33.1 °F 100% 29.50 in 0.8 mi NW 19.6 mph 25.3 mph 0.00 in Snow Light Snow
12:11 PM 32.0 °F 20.5 °F 32.0 °F 100% 29.47 in 0.8 mi NNW 18.4 mph - 0.02 in Snow Light Snow
12:31 PM 32.0 °F 20.8 °F 32.0 °F 100% 29.45 in 0.5 mi NNW 17.3 mph - 0.03 in Fog , Snow Snow
12:52 PM 32.0 °F 20.8 °F 32.0 °F 100% 29.46 in 0.2 mi NNW 17.3 mph - 0.05 in Fog , Snow Snow
1:37 PM 32.0 °F 20.5 °F 32.0 °F 100% 29.41 in 0.5 mi NNW 18.4 mph - 0.03 in Fog , Snow Snow
1:52 PM 32.0 °F 20.5 °F 32.0 °F 100% 29.44 in 0.5 mi NNW 18.4 mph - 0.03 in Fog , Snow Snow
2:40 PM 32.0 °F 19.2 °F 32.0 °F 100% 29.38 in 0.8 mi NNW 23.0 mph - 0.00 in Snow Light Snow
2:52 PM 32.0 °F 19.2 °F 32.0 °F 100% 29.42 in 1.0 mi NW 23.0 mph - 0.00 in Snow Light Snow
3:07 PM 32.0 °F 18.9 °F 32.0 °F 100% 29.38 in 1.2 mi NW 24.2 mph 28.8 mph 0.00 in Snow Light Snow
3:18 PM 32.0 °F 18.9 °F 32.0 °F 100% 29.38 in 1.0 mi NW 24.2 mph 32.2 mph 0.00 in Snow Light Snow
3:26 PM 32.0 °F 18.4 °F 32.0 °F 100% 29.38 in 0.8 mi NW 26.5 mph 33.4 mph 0.01 in Snow Light Snow
3:42 PM 32.0 °F 19.2 °F 32.0 °F 100% 29.39 in 1.0 mi NW 23.0 mph 32.2 mph 0.01 in Snow Light Snow
3:49 PM 32.0 °F 18.9 °F 32.0 °F 100% 29.39 in 1.2 mi NW 24.2 mph - 0.01 in Snow Light Snow
3:52 PM 32.0 °F 18.9 °F 32.0 °F 100% 29.42 in 1.5 mi NW 24.2 mph - 0.01 in Snow Light Snow
4:10 PM 32.0 °F 18.6 °F 32.0 °F 100% 29.38 in 1.8 mi NW 25.3 mph 32.2 mph 0.00 in Snow Light Snow
4:17 PM 32.0 °F 18.6 °F 32.0 °F 100% 29.38 in 1.5 mi NW 25.3 mph - 0.00 in Snow Light Snow
4:29 PM 32.0 °F 18.4 °F 32.0 °F 100% 29.38 in 1.0 mi NW 26.5 mph - 0.00 in Snow Light Snow
4:37 PM 32.0 °F 18.4 °F 32.0 °F 100% 29.38 in 0.8 mi NW 26.5 mph 34.5 mph 0.00 in Snow Light Snow
4:52 PM 32.0 °F 18.1 °F 32.0 °F 100% 29.42 in 1.0 mi NW 27.6 mph - 0.00 in Snow Light Snow
4:58 PM 32.0 °F 18.6 °F 32.0 °F 100% 29.39 in 0.8 mi NW 25.3 mph - 0.00 in Snow Light Snow
5:01 PM 32.0 °F 18.1 °F 32.0 °F 100% 29.39 in 1.0 mi NW 27.6 mph 33.4 mph 0.00 in Snow Light Snow
5:07 PM 32.0 °F 17.9 °F 32.0 °F 100% 29.39 in 0.8 mi NW 28.8 mph 35.7 mph 0.00 in Snow Light Snow
5:52 PM 32.0 °F 17.4 °F 30.9 °F 96% 29.45 in 0.8 mi NW 31.1 mph 40.3 mph 0.00 in Snow Light Snow
6:13 PM 30.9 °F 15.3 °F 30.9 °F 100% 29.43 in 1.0 mi NW 34.5 mph 40.3 mph 0.00 in Snow Light Snow
6:23 PM 30.9 °F 15.9 °F 30.9 °F 100% 29.43 in 0.8 mi NW 31.1 mph 39.1 mph 0.00 in Snow Light Snow
6:31 PM 30.9 °F 15.3 °F 30.9 °F 100% 29.44 in 1.0 mi NW 34.5 mph 39.1 mph 0.00 in Snow Light Snow
6:38 PM 30.9 °F 15.7 °F 30.9 °F 100% 29.44 in 0.8 mi NW 32.2 mph 39.1 mph 0.00 in Snow Light Snow
6:52 PM 28.9 °F 14.0 °F 28.9 °F 100% 29.49 in 0.5 mi NW 27.6 mph 42.6 mph 0.00 in Fog , Snow Snow
7:00 PM 28.9 °F 11.9 °F 28.9 °F 100% 29.45 in 0.5 mi NW 38.0 mph 46.0 mph 0.00 in Fog , Snow Snow
7:09 PM 28.0 °F 11.5 °F 28.0 °F 100% 29.46 in 0.2 mi NW 33.4 mph 46.0 mph 0.00 in Fog , Snow Snow
7:52 PM 26.1 °F 7.7 °F 26.1 °F 100% 29.52 in 0.2 mi NW 39.1 mph 49.5 mph 0.02 in Fog , Snow Snow
8:14 PM 24.1 °F 6.1 °F 24.1 °F 100% 29.48 in 0.2 mi NW 33.4 mph 49.5 mph 0.03 in Fog , Snow Light Freezing Fog
8:49 PM 21.2 °F 1.7 °F 21.2 °F 100% 29.49 in 0.2 mi NW 35.7 mph 48.3 mph 0.07 in Fog , Snow Light Freezing Fog
8:52 PM 21.9 °F 2.6 °F 21.9 °F 100% 29.54 in 0.5 mi NW 35.7 mph 48.3 mph 0.07 in Fog , Snow Light Freezing Fog
9:27 PM 19.9 °F -0.8 °F 19.9 °F 100% 29.50 in 0.2 mi WNW 39.1 mph 46.0 mph 0.01 in Fog , Snow Light Freezing Fog
9:52 PM 19.0 °F -1.1 °F 19.0 °F 100% 29.56 in 0.2 mi NW 34.5 mph 46.0 mph 0.01 in Fog , Snow Light Snow
10:08 PM 19.0 °F -1.1 °F 19.0 °F 100% 29.51 in 0.5 mi WNW 34.5 mph 43.7 mph 0.00 in Fog , Snow Light Snow
10:21 PM 19.0 °F -0.3 °F 19.0 °F 100% 29.50 in 1.0 mi WNW 31.1 mph 35.7 mph 0.00 in   Overcast
10:40 PM 19.0 °F -1.1 °F 18.0 °F 96% 29.51 in 0.8 mi NW 34.5 mph 42.6 mph 0.00 in Snow Light Snow
10:47 PM 17.6 °F -2.5 °F 15.8 °F 93% 29.51 in 1.0 mi NW 32.2 mph 40.3 mph 0.00 in   Overcast
10:50 PM 17.6 °F -1.3 °F 15.8 °F 93% 29.51 in 1.2 mi NW 27.6 mph 39.1 mph 0.00 in   Overcast
10:52 PM 18.0 °F -1.7 °F 16.0 °F 92% 29.56 in 1.5 mi WNW 31.1 mph 39.1 mph 0.00 in   Overcast
11:13 PM 18.0 °F -2.0 °F 16.0 °F 92% 29.51 in 1.0 mi NW 32.2 mph 42.6 mph 0.00 in Snow Light Snow
11:21 PM 17.1 °F -3.8 °F 16.0 °F 96% 29.51 in 0.8 mi NW 34.5 mph 42.6 mph 0.00 in Snow Light Snow
11:33 PM 17.1 °F -2.7 °F 15.1 °F 92% 29.51 in 1.2 mi NW 29.9 mph 40.3 mph 0.00 in   Mostly Cloudy
11:43 PM 17.1 °F -1.7 °F 15.1 °F 92% 29.51 in 2.5 mi NW 26.5 mph - 0.00 in   Mostly Cloudy
11:52 PM 17.1 °F -3.0 °F 15.1 °F 92% 29.56 in 1.5 mi NW 31.1 mph 36.8 mph 0.00 in Snow Light Snow